TimeCDT,TemperatureF,Dew PointF,Humidity,Sea Level PressureIn,VisibilityMPH,Wind Direction,Wind SpeedMPH,Gust SpeedMPH,PrecipitationIn,Events,Conditions,WindDirDegrees,DateUTC
12:15 AM,33.8,31.6,92,30.12,7.0,ENE,16.1,-,N/A,,Overcast,60,2013-04-02 05:15:00
12:35 AM,33.8,31.1,90,30.12,7.0,NE,18.4,-,N/A,,Overcast,50,2013-04-02 05:35:00
12:55 AM,33.3,30.2,89,30.12,7.0,NE,15.0,-,N/A,,Overcast,50,2013-04-02 05:55:00
1:15 AM,33.1,30.0,89,30.12,10.0,NE,16.1,-,N/A,,Overcast,50,2013-04-02 06:15:00
1:35 AM,32.9,29.1,86,30.12,10.0,NE,16.1,21.9,N/A,,Overcast,40,2013-04-02 06:35:00
1:55 AM,32.5,28.9,87,30.12,10.0,NE,17.3,-,N/A,,Overcast,40,2013-04-02 06:55:00
2:35 AM,32.0,27.5,83,30.12,10.0,NE,18.4,-,N/A,,Overcast,40,2013-04-02 07:35:00
2:55 AM,32.0,26.4,80,30.12,10.0,NE,18.4,-,N/A,,Overcast,50,2013-04-02 07:55:00
3:15 AM,32.0,25.7,78,30.12,10.0,NE,18.4,-,N/A,,Overcast,40,2013-04-02 08:15:00
3:35 AM,32.0,25.3,76,30.11,10.0,NE,18.4,24.2,N/A,,Overcast,50,2013-04-02 08:35:00
3:55 AM,32.0,24.8,75,30.11,10.0,NE,19.6,-,N/A,,Overcast,50,2013-04-02 08:55:00
4:15 AM,32.0,24.6,74,30.12,10.0,NE,19.6,24.2,N/A,,Overcast,40,2013-04-02 09:15:00
4:35 AM,32.0,24.3,73,30.11,10.0,NE,19.6,-,N/A,,Overcast,40,2013-04-02 09:35:00
4:55 AM,32.0,24.3,73,30.11,10.0,NE,18.4,24.2,N/A,,Overcast,50,2013-04-02 09:55:00
5:15 AM,32.0,23.9,72,30.11,10.0,NE,20.7,-,N/A,,Overcast,40,2013-04-02 10:15:00
5:35 AM,32.4,24.3,72,30.11,10.0,NE,17.3,21.9,N/A,,Overcast,40,2013-04-02 10:35:00
5:55 AM,32.2,24.3,73,30.13,10.0,NE,17.3,23.0,N/A,,Overcast,40,2013-04-02 10:55:00
6:15 AM,32.2,24.4,73,30.14,10.0,NE,16.1,19.6,N/A,,Overcast,50,2013-04-02 11:15:00
6:35 AM,31.6,25.9,79,30.14,7.0,NE,18.4,21.9,N/A,,Overcast,40,2013-04-02 11:35:00
6:55 AM,31.1,26.8,84,30.14,7.0,NE,13.8,-,N/A,,Overcast,40,2013-04-02 11:55:00
7:15 AM,30.9,27.0,85,30.14,7.0,NE,15.0,18.4,N/A,,Overcast,40,2013-04-02 12:15:00
7:35 AM,30.7,26.6,85,30.14,7.0,NE,16.1,-,N/A,,Overcast,40,2013-04-02 12:35:00
7:55 AM,30.7,26.4,84,30.14,7.0,NE,13.8,20.7,N/A,,Overcast,50,2013-04-02 12:55:00
8:15 AM,30.6,26.1,83,30.14,10.0,NE,16.1,-,N/A,,Overcast,50,2013-04-02 13:15:00
8:35 AM,31.1,26.1,82,30.14,10.0,NE,16.1,-,N/A,,Overcast,50,2013-04-02 13:35:00
8:55 AM,31.3,26.1,81,30.16,10.0,NE,12.7,-,N/A,,Overcast,50,2013-04-02 13:55:00
9:15 AM,31.6,26.2,80,30.16,10.0,NE,16.1,-,N/A,,Overcast,50,2013-04-02 14:15:00
9:35 AM,31.8,26.4,80,30.16,10.0,NE,16.1,19.6,N/A,,Overcast,40,2013-04-02 14:35:00
9:55 AM,31.5,27.0,83,30.16,5.0,NE,16.1,-,N/A,,Overcast,50,2013-04-02 14:55:00
10:15 AM,31.6,28.0,87,30.16,4.0,ENE,16.1,21.9,N/A,,Overcast,60,2013-04-02 15:15:00
10:35 AM,31.5,28.8,90,30.17,3.0,NE,12.7,-,N/A,,Overcast,40,2013-04-02 15:35:00
10:55 AM,31.1,28.9,92,30.17,2.0,NE,11.5,-,N/A,,Overcast,40,2013-04-02 15:55:00
11:15 AM,31.8,29.8,92,30.17,2.0,NE,11.5,-,N/A,,Overcast,50,2013-04-02 16:15:00
11:35 AM,32.0,30.2,93,30.17,2.0,ENE,13.8,-,N/A,,Overcast,60,2013-04-02 16:35:00
11:55 AM,32.0,30.9,96,30.17,2.5,NE,13.8,-,N/A,Snow,Light Snow,50,2013-04-02 16:55:00
12:15 PM,32.2,31.1,96,30.16,2.5,NE,15.0,18.4,N/A,Snow,Light Snow,50,2013-04-02 17:15:00
12:35 PM,32.7,31.6,96,30.16,2.0,NE,12.7,-,N/A,Rain,Light Rain,50,2013-04-02 17:35:00
12:55 PM,33.3,32.0,95,30.16,2.0,ENE,15.0,19.6,N/A,,Overcast,70,2013-04-02 17:55:00
1:15 PM,33.6,32.0,94,30.16,2.5,ENE,17.3,-,N/A,Snow,Light Snow,60,2013-04-02 18:15:00
1:35 PM,34.0,32.2,93,30.15,2.5,ENE,16.1,20.7,N/A,,Overcast,70,2013-04-02 18:35:00
1:55 PM,34.7,32.9,93,30.13,2.0,ENE,16.1,-,N/A,,Overcast,60,2013-04-02 18:55:00
2:15 PM,34.7,32.9,93,30.12,2.5,ENE,13.8,-,N/A,,Overcast,70,2013-04-02 19:15:00
2:35 PM,34.7,32.9,93,30.12,3.0,NE,13.8,-,N/A,,Overcast,40,2013-04-02 19:35:00
2:55 PM,34.7,33.1,94,30.12,3.0,ENE,17.3,-,N/A,,Overcast,60,2013-04-02 19:55:00
3:15 PM,34.7,33.1,94,30.12,2.5,ENE,18.4,-,N/A,,Overcast,60,2013-04-02 20:15:00
3:35 PM,34.7,33.1,94,30.12,4.0,NE,15.0,-,N/A,,Overcast,50,2013-04-02 20:35:00
3:55 PM,34.3,32.5,93,30.11,3.0,NE,17.3,-,N/A,,Overcast,50,2013-04-02 20:55:00
4:15 PM,34.5,32.9,94,30.10,3.0,NE,16.1,-,N/A,,Overcast,40,2013-04-02 21:15:00
4:35 PM,33.8,32.0,93,30.10,4.0,NE,15.0,-,N/A,,Overcast,40,2013-04-02 21:35:00
4:55 PM,34.0,32.4,94,30.10,2.5,NE,16.1,21.9,N/A,,Overcast,40,2013-04-02 21:55:00
5:15 PM,33.4,32.0,94,30.09,4.0,ENE,17.3,-,N/A,,Overcast,60,2013-04-02 22:15:00
5:35 PM,33.6,32.0,94,30.09,4.0,NE,18.4,-,N/A,,Overcast,50,2013-04-02 22:35:00
5:55 PM,33.1,32.0,96,30.09,4.0,NE,13.8,-,N/A,,Overcast,50,2013-04-02 22:55:00
6:15 PM,32.9,32.0,96,30.09,5.0,NE,17.3,-,N/A,,Overcast,40,2013-04-02 23:15:00
6:35 PM,32.7,31.8,96,30.10,7.0,NE,17.3,-,N/A,,Overcast,50,2013-04-02 23:35:00
6:55 PM,32.2,31.1,96,30.10,7.0,NE,17.3,-,N/A,,Overcast,50,2013-04-02 23:55:00
7:15 PM,32.2,31.3,96,30.10,7.0,NE,15.0,-,N/A,,Overcast,50,2013-04-03 00:15:00
7:35 PM,32.2,31.1,96,30.10,3.0,NE,18.4,-,N/A,,Overcast,50,2013-04-03 00:35:00
7:55 PM,32.0,30.7,95,30.10,2.0,NE,18.4,-,N/A,,Overcast,50,2013-04-03 00:55:00
8:15 PM,32.0,30.7,95,30.10,2.0,NE,16.1,-,N/A,,Overcast,50,2013-04-03 01:15:00
8:35 PM,31.6,30.2,94,30.10,4.0,NE,15.0,-,N/A,,Overcast,50,2013-04-03 01:35:00
8:55 PM,31.6,30.4,95,30.11,4.0,NE,18.4,-,N/A,,Overcast,50,2013-04-03 01:55:00
9:15 PM,31.6,30.6,96,30.11,3.0,NE,17.3,-,N/A,,Overcast,50,2013-04-03 02:15:00
9:35 PM,31.1,30.2,96,30.12,2.5,ENE,18.4,-,N/A,,Overcast,60,2013-04-03 02:35:00
9:55 PM,31.6,30.4,95,30.13,4.0,ENE,16.1,23.0,N/A,,Overcast,60,2013-04-03 02:55:00
10:15 PM,31.6,30.6,96,30.14,5.0,NE,13.8,-,N/A,,Overcast,40,2013-04-03 03:15:00
10:35 PM,31.6,30.6,96,30.16,4.0,NNE,12.7,-,N/A,,Overcast,30,2013-04-03 03:35:00
10:55 PM,31.5,30.4,96,30.17,3.0,NNE,10.4,-,N/A,,Overcast,20,2013-04-03 03:55:00
11:15 PM,31.5,30.2,95,30.18,3.0,NNE,11.5,-,N/A,,Overcast,30,2013-04-03 04:15:00
11:35 PM,31.5,30.4,96,30.17,2.0,North,13.8,-,N/A,,Overcast,10,2013-04-03 04:35:00
11:55 PM,31.5,30.2,95,30.19,2.0,North,12.7,-,N/A,,Overcast,360,2013-04-03 04:55:00